Weather History for Ben-Gurion International Airport, Israel

Change the Weather History Date:

Tuesday, November 6, 2012

  Actual Average Record
Temperature  
Mean Temperature 78 °F -  
Max Temperature 88 °F 72 °F - ()
Min Temperature 67 °F 55 °F - ()
Cooling Degree Days 12    
Growing Degree Days 28 (Base 50)    
Moisture  
Dew Point 58 °F    
Average Humidity 54    
Maximum Humidity 78    
Minimum Humidity 25    
Precipitation  
Precipitation 0.00 in - - ()
Sea Level Pressure  
Sea Level Pressure 29.96 in    
Wind  
Wind Speed 4 mph ()    
Max Wind Speed 13 mph    
Max Gust Speed -    
Visibility 6.0 miles    
Events      
T = Trace of Precipitation, MM = Missing Value Source: Averaged Metar Reports

Daily Weather History Graph

Daily Weather History Graph

Search for Another Location

Airport:

Trip Planner

Search our weather history database for the weather conditions in past years. The results will help you decide how hot, cold, wet, or windy it might be!

Date:

Astronomy

Nov. 06, 2012 Rise Set
Actual Time 6:01 AM IST 4:46 PM IST
Civil Twilight 5:35 AM IST 5:11 PM IST
Nautical Twilight 5:06 AM IST 5:40 PM IST
Astronomical Twilight 4:38 AM IST 6:09 PM IST
Moon 11:00 PM IST (11/6) 11:44 AM IST (11/6)
Length of Visible Light 11h 35m
Length of Day
10h 44m
Waning Gibbous, 56% of the Moon is Illuminated
Nov 6
Waning Gibbous
Nov 7
Last Quarter
Nov 14
New
Nov 20
First Quarter
Nov 28
Full

Hourly Weather History & Observations

Time (IST) Temp. Heat Index Dew Point Humidity Pressure Visibility Wind Dir Wind Speed Gust Speed Precip Events Conditions
12:50 AM 73.4 °F - 59.0 °F 61% 29.92 in - North 9.2 mph - N/A   Clear
1:50 AM 73.4 °F - 57.2 °F 57% 29.92 in - NNE 2.3 mph - N/A   Clear
2:00 AM 72 °F - 57 °F 50% 29.94 in 6 mi NNE 2.3 mph - -   Scattered Clouds
2:50 AM 71.6 °F - 55.4 °F 57% 29.92 in - Calm Calm - N/A   Clear
3:50 AM 71.6 °F - 59.0 °F 64% 29.92 in - SE 5.8 mph - N/A   Clear
4:50 AM 71.6 °F - 57.2 °F 60% 29.95 in - Variable 1.2 mph - N/A   Clear
5:50 AM 68.0 °F - 55.4 °F 64% 29.95 in - NE 4.6 mph - N/A   Clear
6:50 AM 69.8 °F - 55.4 °F 60% 29.95 in - Variable 1.2 mph - N/A   Clear
7:50 AM 73.4 °F - 57.2 °F 57% 29.95 in - NW 3.5 mph - N/A   Clear
8:00 AM 74 °F - 56 °F 44% 29.97 in 6 mi NW 8.1 mph - -   Clear
8:50 AM 78.8 °F - 59.0 °F 51% 29.95 in - NW 2.3 mph - N/A   Clear
9:50 AM 80.6 °F 80.8 °F 57.2 °F 45% 29.98 in - WNW 2.3 mph - N/A   Clear
10:50 AM 84.2 °F 83.0 °F 55.4 °F 37% 29.95 in - South 1.2 mph - N/A   Clear
11:50 AM 86.0 °F - 51.8 °F 31% 29.92 in - NW 4.6 mph - N/A   Clear
12:50 PM 86.0 °F 84.2 °F 53.6 °F 33% 29.92 in - WNW 6.9 mph - N/A   Clear
1:50 PM 86.0 °F 84.5 °F 55.4 °F 35% 29.92 in - NW 11.5 mph - N/A   Clear
2:00 PM 85 °F - 55 °F 25% 29.92 in 6 mi WNW 11.5 mph - -   Clear
2:50 PM 84.2 °F 83.8 °F 59.0 °F 42% 29.92 in - NNW 12.7 mph - N/A   Clear
3:50 PM 84.2 °F 83.0 °F 55.4 °F 37% 29.92 in - NNW 10.4 mph - N/A   Clear
4:50 PM 78.8 °F - 62.6 °F 57% 29.95 in - NNW 8.1 mph - N/A   Clear
5:50 PM 78.8 °F - 64.4 °F 61% 29.98 in - NNW 5.8 mph - N/A   Clear
6:50 PM 77.0 °F - 64.4 °F 65% 29.98 in - NNE 3.5 mph - N/A   Clear
7:50 PM 75.2 °F - 62.6 °F 65% 30.01 in - Variable 1.2 mph - N/A   Clear
8:00 PM 75 °F - 63 °F 59% 30.01 in 6 mi 1.2 mph - -  
8:50 PM 73.4 °F - 64.4 °F 73% 30.01 in - East 3.5 mph - N/A   Clear
9:50 PM 69.8 °F - 59.0 °F 68% 30.01 in - Variable 1.2 mph - N/A   Clear
10:50 PM 69.8 °F - 60.8 °F 73% 30.01 in - ENE 3.5 mph - N/A   Clear
11:50 PM 68.0 °F - 60.8 °F 78% 30.01 in - East 3.5 mph - N/A   Clear